Location: Sherman Corners
(41.2384°N, 81.7854°W)
Time: 05:13:38
(UTC+00:00)

Daily predictions for brighter satellites

Satellite Brightness Start Highest point End
(mag) Time Altitude Azimuth Time Altitude Azimuth Time Altitude Azimuth
NOAA 11 4.0 00:08:46 10° SSE 00:14:10 75° ENE 00:19:36 10° N
Cosmos 2346 Rocket 4.4 00:08:07 10° S 00:14:13 60° E 00:20:20 10° NNE
Tsikada Rocket 4.1 00:09:34 10° SSE 00:15:40 53° E 00:21:51 10° NNE
Cosmos 2219 4.2 00:21:03 10° NW 00:26:23 45° WSW 00:31:41 10° S
USA 215 3.2 00:27:56 55° ENE 00:29:03 63° NE 00:35:31 10° NW
Cosmos 1816 Rocket 4.4 00:23:26 10° S 00:29:42 72° E 00:36:03 10° NNE
Cosmos 1680 Rocket 3.7 00:26:16 10° S 00:30:24 56° S 00:30:24 56° S
Lacrosse 4 Rocket 2.8 00:27:45 10° SSW 00:29:56 31° SSW 00:29:56 31° SSW
Cosmos 1656 4.2 00:27:17 10° SW 00:32:45 57° WNW 00:35:31 28° N
Meteor 2-11 Rocket 4.3 00:27:35 10° N 00:33:44 89° W 00:39:51 10° S
USA 229 DEB 4.3 00:32:49 10° WSW 00:39:10 51° NW 00:42:47 27° NNE
USA 229 4.3 00:32:56 10° SW 00:39:16 52° NW 00:42:49 27° NNE
Ariane Rocket 3.5 00:43:00 51° NNW 00:43:00 51° NNW 00:46:47 10° NNW
NOSS 3-1 (A) 3.4 00:38:45 10° SW 00:44:12 72° NW 00:44:56 64° N
IRS-1A Rocket 4.4 00:46:07 65° NNW 00:46:07 65° NNW 00:50:57 10° NNW
NOSS 3-1 (C) 4.1 00:41:34 10° WSW 00:46:53 46° NW 00:49:00 33° N
Cosmos 1980 Rocket 3.8 00:42:38 10° S 00:44:33 22° S 00:44:33 22° S
Cosmos 2227 Rocket 3.1 00:45:58 10° NW 00:51:23 47° WSW 00:54:22 25° SSW
Cosmos 2297 Rocket 3.3 00:46:50 10° NW 00:52:08 42° WSW 00:56:01 17° S
BREEZE-M DEB (TANK) 4.3 00:52:09 10° WSW 00:54:28 26° W 00:54:28 26° W
CZ-4 R/B 4.3 00:53:44 10° SW 00:56:24 16° W 00:59:04 10° NW
Cosmos 2369 4.2 00:54:43 10° SW 01:00:16 56° WNW 01:00:24 56° WNW
Cosmos 1697 Rocket 4.2 01:24:46 10° SW 01:28:52 33° W 01:28:52 33° W
ATLAS 5 CENTAUR R/B 4.1 01:40:40 10° WNW 01:45:43 27° WSW 01:45:43 27° WSW
Lacrosse 5 4.1 08:55:51 20° ESE 08:55:51 20° ESE 08:59:00 10° ENE
Cosmos 2082 Rocket 4.5 08:53:21 10° SE 08:57:25 20° E 09:01:29 10° NE
Cosmos 1833 Rocket 3.4 09:21:26 45° SE 09:22:17 49° ESE 09:27:41 10° NE
Cosmos 1656 4.1 09:25:17 56° E 09:25:17 56° E 09:29:56 10° SE
CZ-4C R/B 4.0 09:35:27 21° N 09:35:27 21° N 09:38:08 10° NNE
Cosmos 1934 Rocket 4.2 09:28:38 10° S 09:34:51 72° E 09:41:11 10° NNE
Cosmos 2084 Rocket 4.4 09:41:08 48° ENE 09:41:08 48° ENE 09:44:40 10° NE
Cosmos 1980 Rocket 3.9 09:36:56 11° N 09:41:40 30° NE 09:46:35 10° ESE
MSX 3.6 09:37:56 10° NNE 09:43:43 84° WNW 09:43:55 82° WSW
Cosmos 1538 Rocket 3.9 09:53:12 80° W 09:53:16 81° WSW 09:58:38 10° SSE
Cosmos 2369 3.9 09:52:07 31° NNW 09:54:56 70° ENE 10:00:39 10° SSE
Atlas Centaur 2 3.7 10:01:35 12° S 10:01:35 12° S 10:02:15 10° SSE
Cosmos 2123 Rocket 3.8 09:56:03 10° N 10:02:15 81° W 10:08:27 10° S
Cosmos 1842 Rocket 3.5 10:08:52 66° SSW 10:08:52 66° SSW 10:12:44 10° S
CZ-3B R/B 4.3 10:06:32 11° S 10:08:56 15° SSE 10:13:20 10° SE
Cosmos 2221 2.5 10:07:44 26° N 10:10:13 81° E 10:14:36 10° S
ALOS 4.4 10:07:22 10° NE 10:11:20 27° E 10:15:17 10° SSE
ISS -3.1 10:13:19 55° SE 10:13:19 55° SE 10:16:01 10° SE
Cosmos 2058 4.2 10:09:07 10° SSE 10:13:05 41° E 10:17:03 10° NNE
Cosmos 1605 Rocket 3.9 10:08:31 10° S 10:14:47 86° W 10:20:59 10° N
COSMO-SKYMED 1 3.8 10:10:43 10° SE 10:14:47 41° ENE 10:18:52 10° N
Shenzhou-11 Module 3.6 10:16:18 30° E 10:16:18 30° E 10:17:52 10° ENE
Cosmos 2278 3.8 10:11:32 17° NNW 10:16:05 76° ENE 10:21:47 10° SSE
Meteor 2-10 Rocket 4.0 10:17:31 42° WSW 10:17:31 42° WSW 10:22:06 10° SSW
COSMOS 2406 4.2 10:22:04 28° NW 10:22:04 28° NW 10:26:11 10° N
Meteor 1-11 4.3 10:15:38 10° SSW 10:21:12 56° WNW 10:26:54 10° N
Cosmos 1697 Rocket 2.5 10:19:49 24° NNW 10:23:19 75° WSW 10:28:54 10° SSE
CZ-4B R/B 3.3 10:21:10 10° N 10:23:38 40° N 10:23:38 40° N
STARLINK-52 3.4 10:28:25 54° NNW 10:28:25 54° NNW 10:31:42 10° NE
SJ 16-02 2.6 10:24:15 10° S 10:28:24 43° ESE 10:32:33 10° NNE
Okean O Rocket 3.4 10:25:16 10° NNE 10:29:13 32° E 10:33:06 10° SSE
ASTEX 1 3.3 10:25:43 10° S 10:30:37 70° W 10:35:36 10° N
Cosmos 1356 Rocket 3.9 10:28:10 10° N 10:32:28 64° E 10:36:43 10° SSE
Lacrosse 4 Rocket 2.9 10:35:50 20° SW 10:35:50 20° SW 10:37:47 10° SSW
CZ-2C R/B 2.7 10:30:26 10° N 10:35:04 41° WNW 10:38:37 15° SW
Cosmos 839 Rocket 4.1 10:28:21 10° SW 10:35:55 72° WNW 10:42:16 10° NNE
Lacrosse 5 1.8 10:35:07 28° WSW 10:37:48 66° NW 10:42:51 10° NE
Cosmos 2082 Rocket 2.2 10:35:23 10° SW 10:41:00 57° WNW 10:46:38 10° NNE
BREEZE-M DEB (TANK) 3.2 10:41:20 31° NW 10:42:18 39° N 10:44:51 10° ENE
USA 267 4.4 10:36:58 10° ENE 10:43:08 43° SE 10:49:16 10° SSW
STARLINK-29 3.7 10:43:00 36° NW 10:43:17 37° NNW 10:46:35 10° NE
deb Kosmos-1763 4.2 10:42:22 10° SSW 10:46:02 76° ESE 10:49:45 10° NNE
Cosmos 2151 3.9 10:45:31 10° S 10:49:40 51° E 10:53:52 10° NNE
ATLAS 2AS CENTAUR R/B 4.2 10:44:13 10° NNW 10:51:13 36° NE 10:57:42 10° ESE
Cosmos 2112 Rocket 4.0 10:45:59 10° NNW 10:51:18 86° WSW 10:56:38 10° SSE
SL-27 R/B 2.2 10:49:11 10° SSW 10:52:29 89° ESE 10:55:49 10° NNE
METEOR-M 4.4 10:47:10 10° NNE 10:52:32 72° ESE 10:57:50 10° S
SL-4 R/B 4.0 10:51:26 16° NW 10:53:57 24° N 10:57:51 10° ENE
H-2A R/B 4.3 10:55:19 10° NNW 10:57:04 16° NW 10:57:04 16° NW
Cosmos 1680 Rocket 3.5 10:54:30 10° NNW 10:59:44 62° WSW 11:04:57 10° S
SKYMED 2 3.6 10:58:35 10° S 11:02:51 57° W 11:07:08 10° NNW
APEX 3.5 11:01:46 25° WNW 11:02:59 34° WSW 11:06:20 10° S
FALCON 9 DEB 4.4 11:03:26 21° NW 11:04:32 25° NNW 11:07:27 10° NNE
Cosmos 1459 Rocket 4.0 10:59:51 10° S 11:05:58 89° E 11:12:15 10° N
Cosmos 1833 Rocket 3.6 11:03:15 16° W 11:06:27 25° NW 11:11:05 10° N
USA 116 3.0 11:05:01 10° S 11:08:07 76° WSW 11:11:22 10° NNW
Meteor 1-31 Rocket 4.1 11:06:03 10° NNW 11:08:42 18° WNW 11:08:47 18° WNW
MOS 1-B 4.4 11:03:38 10° N 11:09:20 59° WNW 11:15:00 10° SSW
Cosmos 1869 3.7 11:09:20 10° NNW 11:12:59 38° W 11:16:37 10° SSW
SL-16 R/B 3.1 11:08:56 10° NNW 11:14:26 49° ENE 11:19:54 10° SE
USA 234 4.5 11:10:58 10° E 11:16:37 33° NNE 11:22:17 10° NW
Cosmos 1484 Rocket 3.6 11:13:10 10° N 11:16:42 31° WNW 11:20:14 10° SW
Cosmos 1328 Rocket 4.1 11:14:29 10° N 11:18:48 61° E 11:23:03 10° SSE
Cosmos 2360 Rocket 4.2 11:15:04 10° N 11:19:41 25° NE 11:24:18 10° ESE
COSMOS 2455 3.6 11:13:48 10° NNW 11:19:43 54° NE 11:25:34 10° SE
Cosmos 2100 Rocket 4.0 11:13:45 10° SSW 11:19:55 66° W 11:26:05 10° N
Gbstr 26 Del rocket 2.7 11:19:13 10° WSW 11:23:02 59° NNW 11:26:44 10° NE
STARLINK-43 3.4 11:20:05 10° WSW 11:23:46 59° NW 11:27:27 10° NE
CZ-4C R/B 4.4 11:22:50 10° NNW 11:24:00 10° NNW 11:25:12 10° N
Cosmos 1980 Rocket 2.6 11:20:27 10° NW 11:25:47 42° WSW 11:31:04 10° S
Cosmos 990 Rocket 4.2 11:21:11 10° SW 11:26:09 47° WNW 11:31:09 10° N
Cosmos 2322 Rocket 3.0 11:21:28 10° NNW 11:27:01 52° ENE 11:32:31 10° SE
Cosmos 1802 Rocket 4.1 11:23:15 10° SSW 11:29:40 74° W 11:36:07 10° N
Cosmos 158 Rocket 4.0 11:26:37 10° NNW 11:31:29 56° WSW 11:36:15 10° S
Cosmos 1151 Rocket 3.2 11:27:33 10° N 11:31:57 80° E 11:36:19 10° S
Okean 3 Rocket 4.0 11:28:39 10° SSW 11:32:57 42° WNW 11:37:14 10° N
Helios 1A Rocket 3.3 11:30:55 10° N 11:34:48 41° WNW 11:38:38 10° SW
Cosmos 2061 Rocket 4.0 11:28:34 10° SSW 11:34:50 76° W 11:41:06 10° N
Cosmos 1892 3.3 11:33:05 10° SW 11:36:35 35° WNW 11:40:05 10° N
Cosmos 1408 Rocket 3.5 11:33:10 10° SSW 11:37:27 76° W 11:41:47 10° N
Cosmos 1606 4.4 11:34:11 10° N 11:37:43 36° ENE 11:41:14 10° SSE
OAO 2 Rocket 4.3 11:33:34 10° WSW 11:38:20 41° S 11:43:01 10° ESE
Radarsat Rocket 4.0 11:32:37 10° NNE 11:38:32 89° W 11:44:24 10° SSW
Cosmos 1933 4.4 11:34:51 10° N 11:38:47 49° E 11:42:40 10° SSE
Cosmos 1898 Rocket 4.2 11:41:15 10° WSW 11:45:51 31° WNW 11:50:30 10° N
